DG2GGP-11 Weather Reports


Display with metric or nautical units.
time (UTC)temp
F
wind
direction
speed
MPH
gust
MPH
rain 1hr
in
rain 24hr
in
rain mn
in
humidity
%
barometer
mb
20260502162917 76 350 5.0 0.0 0.00 0.00 0.00 36 1018.4
20260502161917 76 348 4.0 0.0 0.00 0.00 0.00 35 1018.6
20260502160917 78 13 4.0 0.0 0.00 0.00 0.00 33 1018.7
20260502151917 76 155 8.0 0.0 0.00 0.00 0.00 35 1019.1
20260502150917 77 73 7.0 0.0 0.00 0.00 0.00 33 1019.2
20260502122916 76 85 6.0 0.0 0.00 0.00 0.00 31 1021.2
20260502121916 76 45 6.0 0.0 0.00 0.00 0.00 30 1021.3
20260502120916 75 150 6.0 0.0 0.00 0.00 0.00 31 1021.4
20260502115916 77 3 7.0 0.0 0.00 0.00 0.00 30 1021.5
20260502114917 76 108 4.0 0.0 0.00 0.00 0.00 31 1021.6
20260502113916 76 73 7.0 0.0 0.00 0.00 0.00 31 1021.8
20260502112916 75 138 4.0 0.0 0.00 0.00 0.00 31 1022.0
20260502111916 74 145 5.0 0.0 0.00 0.00 0.00 31 1022.1
20260502110916 74 150 7.0 0.0 0.00 0.00 0.00 33 1022.1
20260502105916 75 20 7.0 0.0 0.00 0.00 0.00 31 1022.2
20260502104916 75 35 6.0 0.0 0.00 0.00 0.00 31 1022.3
20260502103917 74 155 5.0 0.0 0.00 0.00 0.00 34 1022.4
20260502102916 73 140 6.0 0.0 0.00 0.00 0.00 32 1022.4
20260502101916 74 168 6.0 0.0 0.00 0.00 0.00 32 1022.5
20260502100916 73 155 6.0 0.0 0.00 0.00 0.00 32 1022.7
20260502090916 73 355 6.0 0.0 0.00 0.00 0.00 36 1023.2
20260502070916 61 230 3.0 0.0 0.00 0.00 0.00 50 1023.7
20260502065916 59 308 5.0 0.0 0.00 0.00 0.00 53 1023.8
20260502064916 58 358 5.0 0.0 0.00 0.00 0.00 56 1023.8
20260502063916 55 225 5.0 0.0 0.00 0.00 0.00 59 1023.8
20260502062916 54 295 4.0 0.0 0.00 0.00 0.00 60 1023.8
20260502061916 53 320 4.0 0.0 0.00 0.00 0.00 63 1023.8
20260502060916 50 335 3.0 0.0 0.00 0.00 0.00 67 1023.8
20260502055916 48 328 5.0 0.0 0.00 0.00 0.00 69 1023.7
20260502054916 46 303 4.0 0.0 0.00 0.00 0.00 73 1023.8
20260502053916 45 245 4.0 0.0 0.00 0.00 0.00 75 1023.8
20260502052916 43 278 4.0 0.0 0.00 0.00 0.00 77 1023.7
20260502051917 42 275 0.0 0.0 0.00 0.00 0.00 78 1023.7
20260502050917 41 193 5.0 0.0 0.00 0.00 0.00 78 1023.6
20260502045917 40 235 4.0 0.0 0.00 0.00 0.00 79 1023.6
20260502044916 39 165 5.0 0.0 0.00 0.00 0.00 80 1023.7
20260502043916 38 163 3.0 0.0 0.00 0.00 0.00 80 1023.7
20260502042919 38 220 5.0 0.0 0.00 0.00 0.00 81 1023.7
20260502041916 38 153 4.0 0.0 0.00 0.00 0.00 81 1023.7
20260502040916 38 0 3.0 0.0 0.00 0.00 0.00 80 1023.7
20260502035917 38 180 3.0 0.0 0.00 0.00 0.00 80 1023.7
20260502034917 38 220 4.0 0.0 0.00 0.00 0.00 80 1023.8
20260502033916 38 193 3.0 0.0 0.00 0.00 0.00 79 1023.7
20260502032916 39 243 7.0 0.0 0.00 0.00 0.00 78 1023.7
20260502031916 39 313 7.0 0.0 0.00 0.00 0.00 78 1023.8
20260502030917 38 178 4.0 0.0 0.00 0.00 0.00 79 1023.8
20260502025916 39 193 3.0 0.0 0.00 0.00 0.00 78 1023.8
20260502024917 39 208 4.0 0.0 0.00 0.00 0.00 78 1023.9
20260502023917 39 195 5.0 0.0 0.00 0.00 0.00 78 1024.0
20260502022916 39 240 4.0 0.0 0.00 0.00 0.00 78 1024.0
20260502021916 39 170 4.0 0.0 0.00 0.00 0.00 78 1024.0
20260502020917 39 240 0.0 0.0 0.00 0.00 0.00 78 1024.1
20260502015917 39 205 0.0 0.0 0.00 0.00 0.00 78 1024.1
20260502014917 39 200 0.0 0.0 0.00 0.00 0.00 77 1024.2
20260502013916 40 218 4.0 0.0 0.00 0.00 0.00 77 1024.2
20260502012917 40 185 3.0 0.0 0.00 0.00 0.00 77 1024.3
20260502011916 40 90 0.0 0.0 0.00 0.00 0.00 76 1024.3
20260502010916 40 8 0.0 0.0 0.00 0.00 0.00 76 1024.3
20260502005916 40 285 3.0 0.0 0.00 0.00 0.00 76 1024.3
20260502004916 40 328 3.0 0.0 0.00 0.00 0.00 74 1024.4
20260502003916 41 315 3.0 0.0 0.00 0.00 0.00 74 1024.5
20260502002917 41 333 3.0 0.0 0.00 0.00 0.00 74 1024.5
20260502001916 41 300 4.0 0.0 0.00 0.00 0.00 73 1024.6
20260502000916 42 333 3.0 0.0 0.00 0.00 0.00 73 1024.7
20260501235916 42 340 3.0 0.0 0.00 0.00 0.00 73 1024.7
20260501234917 42 325 4.0 0.0 0.00 0.00 0.00 73 1024.7
20260501233916 42 78 2.0 0.0 0.00 0.00 0.00 72 1024.8
20260501232916 42 70 3.0 0.0 0.00 0.00 0.00 73 1024.8
20260501231917 42 320 2.0 0.0 0.00 0.00 0.00 72 1024.8
20260501230916 43 313 3.0 0.0 0.00 0.00 0.00 72 1024.7
20260501225916 43 330 4.0 0.0 0.00 0.00 0.00 71 1024.8
20260501224917 43 315 3.0 0.0 0.00 0.00 0.00 71 1024.8
20260501223917 44 280 0.0 0.0 0.00 0.00 0.00 71 1024.8
20260501222917 44 185 0.0 0.0 0.00 0.00 0.00 70 1024.9
20260501221916 44 250 3.0 0.0 0.00 0.00 0.00 69 1024.8
20260501220916 45 218 3.0 0.0 0.00 0.00 0.00 69 1024.8
20260501215916 45 328 3.0 0.0 0.00 0.00 0.00 68 1024.9
20260501214916 45 60 0.0 0.0 0.00 0.00 0.00 68 1024.8
20260501213917 46 290 4.0 0.0 0.00 0.00 0.00 67 1024.8
20260501212916 46 45 3.0 0.0 0.00 0.00 0.00 66 1024.7
20260501211916 46 260 3.0 0.0 0.00 0.00 0.00 66 1024.8
20260501210917 47 255 5.0 0.0 0.00 0.00 0.00 65 1024.8
20260501205916 47 330 3.0 0.0 0.00 0.00 0.00 65 1024.7
20260501204916 47 260 4.0 0.0 0.00 0.00 0.00 64 1024.8
20260501203916 48 190 0.0 0.0 0.00 0.00 0.00 63 1024.8
20260501202917 49 325 0.0 0.0 0.00 0.00 0.00 62 1024.8
20260501201916 49 310 4.0 0.0 0.00 0.00 0.00 62 1024.8
20260501200916 50 295 0.0 0.0 0.00 0.00 0.00 61 1024.8
20260501195917 51 10 3.0 0.0 0.00 0.00 0.00 60 1024.6
20260501194917 51 303 0.0 0.0 0.00 0.00 0.00 58 1024.6
20260501193916 52 343 3.0 0.0 0.00 0.00 0.00 57 1024.5
20260501192916 54 310 0.0 0.0 0.00 0.00 0.00 55 1024.4
20260501191916 55 35 2.0 0.0 0.00 0.00 0.00 53 1024.4
20260501190916 56 235 3.0 0.0 0.00 0.00 0.00 51 1024.3
20260501185917 58 315 0.0 0.0 0.00 0.00 0.00 48 1024.3
20260501184918 60 330 3.0 0.0 0.00 0.00 0.00 44 1024.2
20260501183916 62 105 0.0 0.0 0.00 0.00 0.00 37 1024.1
20260501182917 63 108 0.0 0.0 0.00 0.00 0.00 34 1024.0
20260501181916 64 158 3.0 0.0 0.00 0.00 0.00 32 1024.0
20260501180917 65 158 3.0 0.0 0.00 0.00 0.00 31 1023.9
20260501175916 66 148 6.0 0.0 0.00 0.00 0.00 30 1023.9
20260501174916 66 163 6.0 0.0 0.00 0.00 0.00 30 1023.8
20260501173916 67 155 5.0 0.0 0.00 0.00 0.00 30 1023.8
20260501172916 68 158 6.0 0.0 0.00 0.00 0.00 28 1023.7
20260501171917 69 150 5.0 0.0 0.00 0.00 0.00 28 1023.8
20260501170917 70 165 7.0 0.0 0.00 0.00 0.00 26 1023.8
20260501165916 71 145 4.0 0.0 0.00 0.00 0.00 26 1023.7
20260501164916 71 150 5.0 0.0 0.00 0.00 0.00 25 1023.7
20260501163917 71 148 6.0 0.0 0.00 0.00 0.00 24 1023.7